#timestamp,LO_Frequency,Hit,StdDev 
1605520815.2,286047000.4,N
1605520835.0,286047000.1,N
1605520835.9,286047000.1,N
1605520855.8,286047000.3,N
1605520875.6,286047000.5,N
1605520895.5,286047000.3,N
1605520915.3,286047000.7,N
1605520935.1,286047001.1,N
1605520955.9,286047000.9,N
1605520975.7,286046999.8,N
1605520995.5,286047002.2,N
1605521015.4,286047002.6,N
1605521035.2,286047002.7,N
1605521055.1,286047000.4,N
1605521056.0,286047000.4,N
1605521075.8,286047002.7,N
1605521095.6,286047002.3,N
1605521115.5,286047000.0,N
1605521135.3,286047000.6,N
1605521155.1,286047002.0,N
1605521175.9,286047001.8,N
1605521195.7,286047001.4,N
1605521215.6,286047003.9,N
1605521235.4,286047003.9,Y
1605521255.2,286047004.2,P
1605521275.1,286047003.7,N
1605521276.0,286047003.7,N
1605521295.8,286047004.4,Y
1605521315.7,286046998.1,P
1605521335.5,286047001.1,N
1605521355.3,286046998.3,N
1605521375.2,286046999.3,N
1605521395.9,286046999.5,N
1605521415.7,286046996.6,N
1605521435.6,286046997.2,N
1605521455.4,286046997.0,N
1605521475.2,286046995.0,N
1605521495.1,286046997.7,N
1605521496.0,286046997.7,N
1605521515.8,286046997.1,N
1605521535.7,286046997.2,N
1605521555.5,286046999.4,N
1605521575.3,286047001.2,N
1605521595.2,286047001.1,N
1605521615.0,286047000.1,N
1605521615.9,286047000.1,N
1605521635.7,286047001.4,N
1605521655.6,286047003.9,N
1605521675.4,286047003.2,N
1605521695.3,286047004.2,N
1605521715.1,286047001.3,N
1605521716.0,286047001.3,N
1605521735.8,286047000.0,N
1605521755.7,286047000.0,N
1605521775.5,286047000.6,N
1605521795.3,286046999.7,N
1605521815.2,286046999.9,N
1605521835.0,286046999.8,N
1605521835.9,286046999.8,N
1605521855.8,286047000.3,N
1605521875.6,286047003.9,N
1605521895.4,286047002.9,N
1605521915.3,286047004.2,N
1605521935.1,286047004.2,N
1605521955.8,286047003.0,N
1605521975.7,286047003.8,N
1605521995.5,286047004.4,N
1605522015.4,286047002.0,N
1605522035.2,286047001.6,N
1605522055.0,286047000.3,N
1605522055.9,286047000.3,N
1605522075.8,286046998.1,N
1605522095.6,286046998.3,N
1605522115.4,286046996.9,N
1605522135.3,286046997.9,N
1605522155.1,286046995.2,N
1605522175.9,286046995.9,N
1605522195.7,286046994.9,N
1605522215.5,286046995.2,N
1605522235.4,286046995.8,N
1605522255.2,286046995.8,N
1605522275.0,286046995.5,N
1605522275.9,286046995.5,N
1605522295.8,286046993.3,N
1605522315.6,286046994.1,N
1605522335.5,286046993.9,N
1605522355.3,286046996.4,N
1605522375.1,286046994.6,N
1605522395.9,286046993.5,N
1605522415.7,286046993.5,N
1605522435.5,286046995.9,N
1605522455.4,286046993.6,N
1605522475.2,286046996.4,N
1605522495.0,286046993.5,N
1605522496.0,286046993.5,N
1605522515.8,286046994.0,N
1605522535.6,286046996.2,N
1605522555.5,286046996.2,N
1605522575.3,286046993.9,N
1605522595.1,286046994.0,Y
1605522615.9,286047001.0,P
1605522635.7,286047002.6,N
1605522655.6,286047000.1,N
1605522675.4,286047000.5,N
1605522695.2,286047000.4,N
1605522715.1,286047000.4,N
1605522716.0,286047000.4,N
1605522735.8,286047001.0,N
1605522755.6,286047000.7,N
1605522775.5,286047000.5,N
1605522795.3,286046998.2,N
1605522815.2,286046998.2,N
1605522835.9,286046998.2,N
1605522855.7,286046998.4,N
1605522875.6,286046999.1,N
1605522895.4,286046999.2,N
1605522915.2,286046998.8,N
1605522935.1,286046998.4,N
1605522936.0,286046998.4,N
1605522955.8,286046998.8,N
1605522975.7,286047001.1,N
1605522995.5,286047001.1,N
1605523015.3,286047001.8,N
1605523035.2,286047003.0,N
1605523055.9,286047006.0,Y
1605523075.7,286047005.1,P
1605523095.6,286047003.1,N
1605523115.4,286047003.0,N
1605523135.2,286047004.4,N
1605523155.1,286047004.0,N
1605523156.0,286047004.0,N
1605523175.8,286047002.3,N
1605523195.7,286047001.6,N
1605523215.5,286047002.4,N
1605523235.3,286047002.2,N
1605523255.2,286046999.9,N
1605523275.0,286047000.1,N
1605523275.9,286047000.1,N
1605523295.7,286047002.2,N
1605523315.6,286047002.0,N
1605523335.4,286047002.5,N
1605523355.3,286047002.1,N
1605523375.1,286047002.2,N
1605523376.0,286047002.2,N
1605523395.8,286047002.2,N
1605523415.7,286047003.9,N
1605523435.5,286047002.9,N
1605523455.3,286047005.1,Y
1605523475.2,286047001.7,P
1605523495.0,286047001.7,P
1605523495.9,286047001.7,P
1605523515.8,286047002.6,Y
1605523535.6,286047000.4,P
1605523555.4,286047000.5,N
1605523575.3,286047000.5,N
1605523595.1,286047000.1,N
1605523615.9,286047002.1,Y
1605523635.7,286047001.0,P
1605523655.5,286046998.4,P
1605523675.4,286046998.9,N
1605523695.2,286046997.7,N
1605523715.0,286046996.8,N
1605523715.9,286046996.8,N
1605523735.8,286046997.1,N
1605523755.6,286046995.0,Y
1605523775.5,286046996.5,P
1605523795.3,286046999.5,N
1605523815.1,286046999.6,N
1605523835.9,286046996.6,N
1605523855.7,286046998.8,N
1605523875.5,286046998.8,N
1605523895.4,286046998.6,N
1605523915.2,286047000.7,N
1605523935.0,286047000.1,N
1605523936.0,286047000.1,N
1605523955.8,286046999.7,N
1605523975.6,286047002.5,N
1605523995.5,286047002.0,N
1605524015.3,286047002.0,N
1605524035.1,286047002.1,N
1605524055.9,286047002.8,N
1605524075.7,286047004.4,N
1605524095.5,286047002.8,N
1605524115.4,286047001.5,N
1605524135.2,286047001.7,N
1605524155.1,286047002.2,N
1605524156.0,286047002.2,N
1605524175.8,286047002.6,N
1605524195.6,286047002.3,N
1605524215.5,286047002.5,N
1605524235.3,286047000.2,N
1605524255.1,286047000.9,N
1605524275.9,286047001.2,N
1605524295.7,286046999.0,N
1605524315.6,286046999.3,N
1605524335.4,286046999.1,N
1605524355.2,286046998.9,N
1605524375.1,286046996.7,N
1605524376.0,286046996.7,N
1605524395.8,286046999.5,N
